, LA

(GMT )
Salt Point

Weather History for KP92 - December, 2012

Change the Weather History Date:

Tuesday, December 4, 2012

  Actual Average Record
Temperature  
Mean Temperature 70 °F -  
Max Temperature 75 °F 63 °F 79 °F (2014)
Min Temperature 64 °F 48 °F 35 °F (2006)
Cooling Degree Days 4    
Growing Degree Days 20 (Base 50)    
Moisture  
Dew Point 65 °F    
Average Humidity 85    
Maximum Humidity 94    
Minimum Humidity 73    
Precipitation  
Precipitation 0.25 in - - ()
Sea Level Pressure  
Sea Level Pressure 30.14 in    
Wind  
Wind Speed 5 mph (ESE)    
Max Wind Speed 13 mph    
Max Gust Speed 39 mph    
Averages and records for this station are not official NWS values.
T = Trace of Precipitation, MM = Missing Value Source: NWS Daily Summary

Daily Weather History Graph

Daily Weather History Graph

Search for Another Location

Airport or City:

Trip Planner

Search our weather history database for the weather conditions in past years. The results will help you decide how hot, cold, wet, or windy it might be!

Date:

Astronomy

Dec. 04, 2012 Rise Set
Actual Time 6:46 AM CST 5:06 PM CST
Civil Twilight 6:20 AM CST 5:32 PM CST
Nautical Twilight 5:50 AM CST 6:02 PM CST
Astronomical Twilight 5:21 AM CST 6:31 PM CST
Moon 10:37 PM CST (12/4) 10:55 AM CST (12/4)
Length of Visible Light 11h 12m
Length of Day
10h 20m
Waning Gibbous, 69% of the Moon is Illuminated
Dec 4
Waning Gibbous
Dec 6
Last Quarter
Dec 13
New
Dec 19
First Quarter
Dec 28
Full

Hourly Weather History & Observations

Time (CST) Temp. Dew Point Humidity Pressure Visibility Wind Dir Wind Speed Gust Speed Precip Events Conditions
12:53 AM 68.0 °F 64.9 °F 90% 30.12 in - ESE 4.6 mph - N/A   Unknown
1:53 AM 66.9 °F 64.9 °F 93% 30.13 in - ESE 3.5 mph - N/A   Unknown
2:53 AM 68.0 °F 64.9 °F 90% 30.12 in - ESE 5.8 mph - N/A   Unknown
3:53 AM 69.1 °F 66.0 °F 90% 30.11 in - SE 4.6 mph - N/A   Unknown
4:53 AM 69.1 °F 66.0 °F 90% 30.12 in - ESE 4.6 mph - N/A   Unknown
5:53 AM 69.1 °F 66.0 °F 90% 30.13 in - ESE 3.5 mph - N/A   Unknown
6:53 AM 68.0 °F 66.0 °F 93% 30.15 in - ESE 3.5 mph - N/A   Unknown
7:53 AM 69.1 °F 66.0 °F 90% 30.16 in - ESE 3.5 mph - N/A   Unknown
8:53 AM 72.0 °F 68.0 °F 87% 30.18 in - SE 6.9 mph - N/A   Unknown
9:53 AM 73.9 °F 68.0 °F 82% 30.20 in - SSE 4.6 mph - N/A   Unknown
10:53 AM 73.9 °F 66.9 °F 79% 30.19 in - SE 6.9 mph - N/A   Unknown
11:53 AM 75.0 °F 66.0 °F 73% 30.17 in - Variable 4.6 mph - N/A   Unknown
12:53 PM 73.9 °F 64.9 °F 73% 30.15 in - SSE 3.5 mph - N/A   Unknown
1:53 PM 73.9 °F 66.0 °F 76% 30.12 in - Variable 3.5 mph - N/A   Unknown
2:53 PM 73.0 °F 66.9 °F 81% 30.11 in - SE 6.9 mph - N/A   Unknown
3:53 PM 73.9 °F 66.9 °F 79% 30.10 in - ESE 5.8 mph - N/A   Unknown
4:53 PM 72.0 °F 66.0 °F 81% 30.11 in - ESE 3.5 mph - N/A   Unknown
5:53 PM 71.1 °F 64.9 °F 81% 30.12 in - SE 3.5 mph - N/A   Unknown
6:53 PM 70.0 °F 64.9 °F 84% 30.13 in - Calm Calm - N/A   Unknown
7:53 PM 70.0 °F 64.9 °F 84% 30.14 in - Calm Calm - N/A   Unknown
8:16 PM 64.4 °F 62.6 °F 94% 30.16 in - NW 12.7 mph 39.1 mph 0.18 in   Unknown
8:53 PM 64.9 °F 62.1 °F 90% 30.17 in - NNW 11.5 mph 18.4 mph 0.19 in   Unknown
9:53 PM 64.0 °F 61.0 °F 90% 30.13 in - Variable 5.8 mph - 0.06 in   Unknown
10:53 PM 64.0 °F 60.1 °F 87% 30.10 in - East 6.9 mph - N/A   Unknown
11:53 PM 64.0 °F 60.1 °F 87% 30.10 in - Variable 3.5 mph - N/A   Unknown